Showing default

COSMOS 1910, 18789

Orbit data source: Space-Track

COSMOS 1910, 18789 is a payload satellite owned by UNKS (CIS) in LEO that was launched on Fri, 15 Jan 1988 UTC via a TSIKLON-3 launch vehicle from the Plesetsk Missile And Space Complex (PKMTR). Payload-class satellites include a variety of spacecraft equipped with specific instruments for various scientific and technological missions. These include communications satellites like Starlink; space stations such as the ISS; scientific satellites like the Hubble; Earth observation satellites from companies like Planet Labs, Umbra, and HawkEye 360; GPS; miniature CubeSats for education and research; and military/defense satellites.

Loading next visibility...
Identifier
18789, 1988-002B
Orbit
LEO
Country
Flag of CISCIS
Related business
Manufacturer
NPO PM
Mission
Defense Communications
Bus & Motor
STRELA-3, Unknown motor
Mass
225 kg wet, 225 kg dry
Launch date (UTC)
1988-01-15 (38 years ago)
Launch vehicle
TSIKLON-3
Launch site
Plesetsk Missile And Space Complex (PKMTR)
Object type
Payload
Rocket body
Debris
Shape & HBR
Cyl, 0.8 m
Radar Cross Section
1.257 m², Large (>1 m²)

Expand to show TLE details & history
Last TLE update: 16 hours ago

TLE from 16 hours ago
0 COSMOS 1910
1 18789U 88002B   25351.57692921  .00000039  00000-0  15329-3 0  9993
2 18789  82.6028   9.3817 0003070 248.0961 236.3469 12.63627953748937
Epoch: 2025-12-17T13:50Z
TLE epoch observation values (Epoch: 2025-12-17T13:50:46.683Z)
Latitude
54.98809°
Longitude
-115.3847°
Altitude
1,418.372 km
Speed
7.156 km/s
True Right ascension
11h 55m 01s
True Declination
54° 50' 24"
Sunlit
Object was in daylight at epoch
Visualization orbit readout
Latitude
Unknown
Longitude
Unknown
Altitude
Unknown
Speed
Unknown
Apparent Right ascension
Unknown
Apparent Declination
Unknown
Sunlit
N/A
Visualization observer readout
Local Sidereal Time
04:48:54
Azimuth
Unknown
Elevation
Unknown
Doppler factor
Unknown
Orbital elements
Apogee altitude
1,407.713 km
Perigee altitude
1,402.934 km
Semi-major axis
7,783.461 km
Eccentricity
0.00031
Inclination
82.6028°
RAAN
9.3817°
Arg. of periapsis
248.0961°
True anomaly
236.31762°
Mean anomaly
236.3469°
Eccentric anomaly
236.33226°
Mean motion
3.16071 °/min
Orbital period
113.9 mins
BSTAR
0.00015329
Loading maneuver chart data...
Computing Atmospheric mass density...
Loading historical data...
Loading historical data...
Loading historical data...
Loading historical data...
Loading historical data...
Loading historical data...
Loading historical data...

Documentation

Showing up to 5 results
|